UAL9583 KBLI-KMFR

Flight info

Callsign UAL9583
Flight time 1h 9m
Altitude 37000
Route KLSHN2 KLSHN HAROB OED
Aircraft A319/M-SDE3FGHIRWY/LB1

Departure

Time 2026-05-07 19:23
Airport Bellingham International Airport (KBLI)

Arrival

Time 2026-05-07 20:32
Airport Rogue Valley International-Medford Airport (KMFR)
Time Latitude Longitude Altitude Speed Heading
2026-05-07 19:05 48.79577 -122.53435 158 ft 0 kts 81°
2026-05-07 19:15 48.79575 -122.53455 158 ft 3 kts 82°
2026-05-07 19:15 48.79570 -122.53488 158 ft 4 kts 55°
2026-05-07 19:15 48.79566 -122.53497 158 ft 4 kts 38°
2026-05-07 19:15 48.79560 -122.53504 158 ft 4 kts 23°
2026-05-07 19:16 48.79541 -122.53510 158 ft 1 kts 359°
2026-05-07 19:16 48.79538 -122.53510 158 ft 0 kts 359°
2026-05-07 19:18 48.79541 -122.53510 158 ft 2 kts 359°
2026-05-07 19:18 48.79572 -122.53512 158 ft 6 kts 358°
2026-05-07 19:19 48.79625 -122.53515 158 ft 9 kts 358°
2026-05-07 19:19 48.79683 -122.53556 158 ft 10 kts 316°
2026-05-07 19:19 48.79753 -122.53587 159 ft 11 kts 359°
2026-05-07 19:19 48.79831 -122.53589 161 ft 11 kts
2026-05-07 19:20 48.79909 -122.53588 163 ft 11 kts 360°
2026-05-07 19:20 48.79991 -122.53589 164 ft 12 kts 359°
2026-05-07 19:20 48.80084 -122.53570 164 ft 15 kts
2026-05-07 19:20 48.80167 -122.53592 163 ft 9 kts 316°
2026-05-07 19:21 48.80175 -122.53618 163 ft 0 kts 287°
2026-05-07 19:21 48.80177 -122.53633 163 ft 4 kts 281°
2026-05-07 19:21 48.80182 -122.53711 163 ft 8 kts 274°
2026-05-07 19:22 48.80147 -122.53758 162 ft 4 kts 180°
2026-05-07 19:22 48.80146 -122.53758 162 ft 0 kts 180°
2026-05-07 19:22 48.79967 -122.53757 164 ft 60 kts 180°
2026-05-07 19:22 48.79308 -122.53753 159 ft 128 kts 179°
2026-05-07 19:23 48.78332 -122.53738 591 ft 143 kts 179°
2026-05-07 19:23 48.77318 -122.53860 1232 ft 149 kts 192°
2026-05-07 19:23 48.76309 -122.54212 1990 ft 149 kts 195°
2026-05-07 19:23 48.75290 -122.54602 2598 ft 157 kts 195°
2026-05-07 19:24 48.74195 -122.55014 3128 ft 171 kts 195°
2026-05-07 19:24 48.72995 -122.55455 3648 ft 183 kts 194°
2026-05-07 19:24 48.71717 -122.55921 4167 ft 195 kts 193°
2026-05-07 19:24 48.70362 -122.56412 4701 ft 207 kts 193°
2026-05-07 19:25 48.68916 -122.56935 5220 ft 220 kts 192°
2026-05-07 19:25 48.67376 -122.57487 5716 ft 236 kts 192°
2026-05-07 19:25 48.65705 -122.58082 6237 ft 259 kts 192°
2026-05-07 19:25 48.63898 -122.58721 6777 ft 271 kts 192°
2026-05-07 19:26 48.62036 -122.59375 7385 ft 277 kts 192°
2026-05-07 19:26 48.60173 -122.60026 7984 ft 280 kts 192°
2026-05-07 19:26 48.58259 -122.60692 8611 ft 284 kts 192°
2026-05-07 19:26 48.56321 -122.61367 9248 ft 287 kts 192°
2026-05-07 19:27 48.54361 -122.62053 9895 ft 291 kts 192°
2026-05-07 19:27 48.52359 -122.62752 10443 ft 303 kts 192°
2026-05-07 19:27 48.50252 -122.63486 10948 ft 318 kts 192°
2026-05-07 19:27 48.48056 -122.64253 11431 ft 332 kts 193°
2026-05-07 19:28 48.45782 -122.65048 12086 ft 338 kts 193°
2026-05-07 19:28 48.43502 -122.65826 12826 ft 342 kts 193°
2026-05-07 19:28 48.41157 -122.66603 13544 ft 347 kts 193°
2026-05-07 19:28 48.38781 -122.67378 14229 ft 352 kts 193°
2026-05-07 19:29 48.36382 -122.68156 14866 ft 355 kts 193°
2026-05-07 19:29 48.33957 -122.68944 15528 ft 357 kts 193°
2026-05-07 19:29 48.31518 -122.69741 16190 ft 360 kts 193°
2026-05-07 19:29 48.29062 -122.70543 16854 ft 363 kts 193°
2026-05-07 19:30 48.26585 -122.71351 17498 ft 366 kts 193°
2026-05-07 19:30 48.24121 -122.72154 18133 ft 369 kts 193°
2026-05-07 19:30 48.21607 -122.72972 18730 ft 372 kts 193°
2026-05-07 19:30 48.19069 -122.73798 19279 ft 375 kts 194°
2026-05-07 19:31 48.16509 -122.74629 19830 ft 378 kts 194°
2026-05-07 19:31 48.13933 -122.75465 20380 ft 381 kts 194°
2026-05-07 19:31 48.11332 -122.76312 20921 ft 384 kts 194°
2026-05-07 19:31 48.08708 -122.77169 21463 ft 387 kts 194°
2026-05-07 19:32 48.06066 -122.78032 21998 ft 390 kts 194°
2026-05-07 19:32 48.03402 -122.78897 22524 ft 393 kts 194°
2026-05-07 19:32 48.00727 -122.79756 23081 ft 395 kts 194°
2026-05-07 19:32 47.98069 -122.80608 23625 ft 397 kts 194°
2026-05-07 19:33 47.95354 -122.81481 24060 ft 400 kts 195°
2026-05-07 19:33 47.92622 -122.82364 24486 ft 403 kts 195°
2026-05-07 19:33 47.89878 -122.83252 24908 ft 406 kts 195°
2026-05-07 19:33 47.87110 -122.84148 25332 ft 408 kts 195°
2026-05-07 19:34 47.84321 -122.85050 25730 ft 412 kts 195°
2026-05-07 19:34 47.81510 -122.85954 26132 ft 415 kts 196°
2026-05-07 19:34 47.78717 -122.86849 26525 ft 417 kts 196°
2026-05-07 19:34 47.75868 -122.87760 26906 ft 420 kts 196°
2026-05-07 19:35 47.73002 -122.88676 27291 ft 422 kts 196°
2026-05-07 19:35 47.70124 -122.89594 27701 ft 424 kts 196°
2026-05-07 19:35 47.67236 -122.90513 28082 ft 427 kts 196°
2026-05-07 19:35 47.64324 -122.91442 28472 ft 429 kts 197°
2026-05-07 19:36 47.61394 -122.92378 28856 ft 432 kts 197°
2026-05-07 19:36 47.58445 -122.93317 29232 ft 435 kts 197°
2026-05-07 19:36 47.55474 -122.94260 29595 ft 438 kts 197°
2026-05-07 19:36 47.52521 -122.95196 29956 ft 441 kts 197°
2026-05-07 19:37 47.49507 -122.96150 30311 ft 444 kts 197°
2026-05-07 19:37 47.46483 -122.97104 30618 ft 446 kts 197°
2026-05-07 19:37 47.43431 -122.98064 30933 ft 448 kts 197°
2026-05-07 19:37 47.40381 -122.99030 31258 ft 450 kts 197°
2026-05-07 19:38 47.37316 -123.00001 31591 ft 451 kts 197°
2026-05-07 19:38 47.34236 -123.00970 31901 ft 453 kts 197°
2026-05-07 19:38 47.31143 -123.01939 32197 ft 455 kts 197°
2026-05-07 19:38 47.28040 -123.02911 32556 ft 456 kts 197°
2026-05-07 19:39 47.24966 -123.03788 32963 ft 458 kts 193°
2026-05-07 19:39 47.21769 -123.04074 33373 ft 463 kts 185°
2026-05-07 19:39 47.18549 -123.04047 33786 ft 462 kts 185°
2026-05-07 19:39 47.15335 -123.04026 34205 ft 461 kts 185°
2026-05-07 19:40 47.12129 -123.04007 34580 ft 460 kts 185°
2026-05-07 19:40 47.08936 -123.03989 34952 ft 459 kts 185°
2026-05-07 19:40 47.05747 -123.03971 35332 ft 458 kts 185°
2026-05-07 19:40 47.02607 -123.03951 35674 ft 457 kts 185°
2026-05-07 19:41 46.99432 -123.03930 36016 ft 456 kts 185°
2026-05-07 19:41 46.96262 -123.03907 36363 ft 455 kts 185°
2026-05-07 19:41 46.93097 -123.03886 36692 ft 454 kts 186°
2026-05-07 19:41 46.89944 -123.03871 37015 ft 453 kts 186°
2026-05-07 19:42 46.86791 -123.03860 37176 ft 452 kts 186°
2026-05-07 19:42 46.83649 -123.03848 37201 ft 450 kts 186°
2026-05-07 19:42 46.77441 -123.03818 37210 ft 449 kts 186°
2026-05-07 19:43 46.71601 -123.03778 37194 ft 449 kts 185°
2026-05-07 19:43 46.65816 -123.03737 37210 ft 446 kts 185°
2026-05-07 19:44 46.59614 -123.03704 37212 ft 446 kts 186°
2026-05-07 19:44 46.53446 -123.03679 37195 ft 446 kts 185°
2026-05-07 19:45 46.47248 -123.03644 37199 ft 446 kts 185°
2026-05-07 19:45 46.41044 -123.03596 37198 ft 446 kts 185°
2026-05-07 19:46 46.34844 -123.03554 37198 ft 446 kts 185°
2026-05-07 19:46 46.28642 -123.03535 37203 ft 445 kts 185°
2026-05-07 19:47 46.22506 -123.03504 37218 ft 444 kts 185°
2026-05-07 19:47 46.16329 -123.03467 37210 ft 444 kts 185°
2026-05-07 19:48 46.10156 -123.03433 37211 ft 443 kts 185°
2026-05-07 19:48 46.03984 -123.03393 37210 ft 443 kts 185°
2026-05-07 19:49 45.97852 -123.03349 37209 ft 443 kts 185°
2026-05-07 19:49 45.91689 -123.03314 37198 ft 443 kts 185°
2026-05-07 19:50 45.85520 -123.03292 37185 ft 443 kts 185°
2026-05-07 19:50 45.79350 -123.03263 37191 ft 444 kts 185°
2026-05-07 19:51 45.73213 -123.03221 37186 ft 444 kts 185°
2026-05-07 19:51 45.67033 -123.03182 37183 ft 444 kts 185°
2026-05-07 19:52 45.60851 -123.03150 37172 ft 444 kts 185°
2026-05-07 19:52 45.54714 -123.03122 37184 ft 444 kts 185°
2026-05-07 19:53 45.48546 -123.03090 37189 ft 444 kts 185°
2026-05-07 19:53 45.42371 -123.03058 37191 ft 443 kts 185°
2026-05-07 19:54 45.36202 -123.03023 37181 ft 444 kts 185°
2026-05-07 19:54 45.30024 -123.02980 37183 ft 444 kts 185°
2026-05-07 19:55 45.23891 -123.02948 37184 ft 443 kts 185°
2026-05-07 19:55 45.17730 -123.02924 37196 ft 443 kts 185°
2026-05-07 19:56 45.11565 -123.02893 37186 ft 443 kts 184°
2026-05-07 19:56 45.05435 -123.02864 37185 ft 443 kts 184°
2026-05-07 19:57 44.99276 -123.02833 37183 ft 443 kts 184°
2026-05-07 19:57 44.93108 -123.02796 37177 ft 443 kts 184°
2026-05-07 19:58 44.86932 -123.02755 37171 ft 443 kts 184°
2026-05-07 19:58 44.80759 -123.02720 37180 ft 444 kts 184°
2026-05-07 19:59 44.74634 -123.02687 37180 ft 444 kts 184°
2026-05-07 19:59 44.68460 -123.02655 37161 ft 444 kts 184°
2026-05-07 20:00 44.62277 -123.02622 37172 ft 444 kts 184°
2026-05-07 20:00 44.56089 -123.02594 37169 ft 445 kts 184°
2026-05-07 20:01 44.49939 -123.02559 37176 ft 445 kts 184°
2026-05-07 20:01 44.43756 -123.02527 37176 ft 445 kts 184°
2026-05-07 20:02 44.37557 -123.02500 37177 ft 445 kts 184°
2026-05-07 20:02 44.31369 -123.02470 37173 ft 445 kts 184°
2026-05-07 20:03 44.25216 -123.02433 37168 ft 445 kts 184°
2026-05-07 20:03 44.19019 -123.02393 37170 ft 445 kts 184°
2026-05-07 20:04 44.12830 -123.02357 37183 ft 444 kts 184°
2026-05-07 20:04 44.06647 -123.02327 37185 ft 444 kts 184°
2026-05-07 20:05 44.03562 -123.02313 36989 ft 445 kts 184°
2026-05-07 20:05 44.00467 -123.02301 36596 ft 445 kts 184°
2026-05-07 20:05 43.97413 -123.02287 36217 ft 444 kts 184°
2026-05-07 20:05 43.94330 -123.02272 35839 ft 442 kts 184°
2026-05-07 20:06 43.91258 -123.02254 35465 ft 440 kts 184°
2026-05-07 20:06 43.88204 -123.02233 35098 ft 438 kts 184°
2026-05-07 20:06 43.85169 -123.02212 34724 ft 435 kts 184°
2026-05-07 20:06 43.82160 -123.02192 34371 ft 432 kts 184°
2026-05-07 20:07 43.79155 -123.02175 33998 ft 430 kts 184°
2026-05-07 20:07 43.76220 -123.02161 33606 ft 427 kts 184°
2026-05-07 20:07 43.73254 -123.02149 33207 ft 425 kts 184°
2026-05-07 20:07 43.70304 -123.02137 32795 ft 423 kts 184°
2026-05-07 20:08 43.67369 -123.02122 32352 ft 421 kts 184°
2026-05-07 20:08 43.64451 -123.02107 31923 ft 418 kts 184°
2026-05-07 20:08 43.61549 -123.02093 31493 ft 416 kts 184°
2026-05-07 20:08 43.58663 -123.02081 31076 ft 414 kts 184°
2026-05-07 20:09 43.55789 -123.02065 30667 ft 412 kts 184°
2026-05-07 20:09 43.52967 -123.02048 30268 ft 410 kts 184°
2026-05-07 20:09 43.50127 -123.02032 29808 ft 408 kts 184°
2026-05-07 20:10 43.44476 -123.02008 28895 ft 404 kts 184°
2026-05-07 20:10 43.41668 -123.01995 28441 ft 403 kts 184°
2026-05-07 20:10 43.38869 -123.01980 27997 ft 401 kts 183°
2026-05-07 20:10 43.36081 -123.01964 27568 ft 400 kts 183°
2026-05-07 20:11 43.33341 -123.01949 27145 ft 398 kts 183°
2026-05-07 20:11 43.30575 -123.01934 26728 ft 397 kts 183°
2026-05-07 20:11 43.27820 -123.01917 26308 ft 395 kts 183°
2026-05-07 20:11 43.25078 -123.01899 25895 ft 393 kts 183°
2026-05-07 20:12 43.22350 -123.01884 25491 ft 391 kts 183°
2026-05-07 20:12 43.19644 -123.01873 25085 ft 389 kts 183°
2026-05-07 20:12 43.16944 -123.01865 24679 ft 386 kts 183°
2026-05-07 20:12 43.14265 -123.01858 24294 ft 384 kts 183°
2026-05-07 20:13 43.11604 -123.01845 23911 ft 381 kts 183°
2026-05-07 20:13 43.08999 -123.01829 23492 ft 378 kts 183°
2026-05-07 20:13 43.06381 -123.01815 23042 ft 375 kts 183°
2026-05-07 20:13 43.03791 -123.01802 22594 ft 371 kts 183°
2026-05-07 20:14 43.01217 -123.01788 22151 ft 369 kts 183°
2026-05-07 20:14 42.98663 -123.01773 21712 ft 365 kts 182°
2026-05-07 20:14 42.96130 -123.01759 21284 ft 363 kts 183°
2026-05-07 20:14 42.93616 -123.01746 20873 ft 360 kts 183°
2026-05-07 20:15 42.91119 -123.01732 20449 ft 358 kts 183°
2026-05-07 20:15 42.88638 -123.01722 20041 ft 355 kts 183°
2026-05-07 20:15 42.86207 -123.01711 19662 ft 352 kts 183°
2026-05-07 20:15 42.83774 -123.01698 19359 ft 347 kts 183°
2026-05-07 20:16 42.81382 -123.01687 19083 ft 341 kts 183°
2026-05-07 20:16 42.79033 -123.01679 18807 ft 335 kts 183°
2026-05-07 20:16 42.76715 -123.01669 18534 ft 331 kts 183°
2026-05-07 20:16 42.74423 -123.01657 18232 ft 328 kts 183°
2026-05-07 20:17 42.72157 -123.01641 17919 ft 324 kts 183°
2026-05-07 20:17 42.69918 -123.01626 17607 ft 320 kts 183°
2026-05-07 20:17 42.67733 -123.01493 17299 ft 319 kts 174°
2026-05-07 20:17 42.65603 -123.00678 16988 ft 319 kts 159°
2026-05-07 20:18 42.63688 -122.99150 16690 ft 321 kts 144°
2026-05-07 20:18 42.62117 -122.97010 16390 ft 320 kts 129°
2026-05-07 20:18 42.60810 -122.94584 16094 ft 318 kts 128°
2026-05-07 20:18 42.59508 -122.92168 15803 ft 316 kts 128°
2026-05-07 20:19 42.58214 -122.89779 15509 ft 313 kts 128°
2026-05-07 20:19 42.56944 -122.87445 15226 ft 310 kts 128°
2026-05-07 20:19 42.55665 -122.85105 14939 ft 307 kts 128°
2026-05-07 20:19 42.54395 -122.82785 14660 ft 305 kts 128°
2026-05-07 20:20 42.53134 -122.80479 14367 ft 303 kts 128°
2026-05-07 20:20 42.51883 -122.78190 14091 ft 301 kts 128°
2026-05-07 20:20 42.50642 -122.75914 13804 ft 300 kts 128°
2026-05-07 20:20 42.49402 -122.73646 13495 ft 299 kts 128°
2026-05-07 20:21 42.48168 -122.71390 13186 ft 297 kts 128°
2026-05-07 20:21 42.46938 -122.69146 12880 ft 296 kts 129°
2026-05-07 20:21 42.45728 -122.66943 12579 ft 295 kts 129°
2026-05-07 20:21 42.44506 -122.64718 12278 ft 294 kts 128°
2026-05-07 20:22 42.43291 -122.62504 11982 ft 292 kts 128°
2026-05-07 20:22 42.42079 -122.60303 11685 ft 291 kts 129°
2026-05-07 20:22 42.40872 -122.58112 11397 ft 290 kts 129°
2026-05-07 20:22 42.39668 -122.55952 11118 ft 285 kts 131°
2026-05-07 20:23 42.38293 -122.54078 10829 ft 278 kts 143°
2026-05-07 20:23 42.36716 -122.52611 10546 ft 273 kts 154°
2026-05-07 20:23 42.35028 -122.51580 10270 ft 267 kts 165°
2026-05-07 20:23 42.33245 -122.50977 9982 ft 261 kts 174°
2026-05-07 20:24 42.31449 -122.50804 9642 ft 257 kts 184°
2026-05-07 20:24 42.29694 -122.51037 9311 ft 251 kts 195°
2026-05-07 20:24 42.28023 -122.51644 9012 ft 247 kts 204°
2026-05-07 20:24 42.26487 -122.52585 8695 ft 238 kts 213°
2026-05-07 20:25 42.25125 -122.53805 8412 ft 233 kts 222°
2026-05-07 20:25 42.23940 -122.55264 8113 ft 228 kts 230°
2026-05-07 20:25 42.22966 -122.56876 7819 ft 221 kts 237°
2026-05-07 20:25 42.22196 -122.58614 7521 ft 212 kts 245°
2026-05-07 20:26 42.21636 -122.60412 7241 ft 205 kts 253°
2026-05-07 20:26 42.21274 -122.62235 7063 ft 196 kts 261°
2026-05-07 20:26 42.21096 -122.64030 6839 ft 192 kts 267°
2026-05-07 20:26 42.21088 -122.65833 6409 ft 193 kts 274°
2026-05-07 20:27 42.21252 -122.67593 5955 ft 186 kts 282°
2026-05-07 20:27 42.21566 -122.69266 5502 ft 183 kts 289°
2026-05-07 20:27 42.22026 -122.70858 5172 ft 179 kts 296°
2026-05-07 20:27 42.22543 -122.72337 4842 ft 175 kts 301°
2026-05-07 20:28 42.23246 -122.73658 4591 ft 171 kts 310°
2026-05-07 20:28 42.23946 -122.74919 4438 ft 166 kts 307°
2026-05-07 20:28 42.24617 -122.76173 4204 ft 165 kts 304°
2026-05-07 20:28 42.25216 -122.77514 3939 ft 168 kts 300°
2026-05-07 20:29 42.25757 -122.78916 3728 ft 169 kts 298°
2026-05-07 20:29 42.26332 -122.80303 3500 ft 169 kts 309°
2026-05-07 20:29 42.27177 -122.81359 3280 ft 167 kts 329°
2026-05-07 20:29 42.28179 -122.82077 3095 ft 156 kts 334°
2026-05-07 20:30 42.29087 -122.82751 2895 ft 144 kts 330°
2026-05-07 20:30 42.29977 -122.83313 2702 ft 138 kts 340°
2026-05-07 20:30 42.30840 -122.83829 2495 ft 137 kts 336°
2026-05-07 20:30 42.31732 -122.84302 2273 ft 137 kts 341°
2026-05-07 20:31 42.32629 -122.84738 2029 ft 141 kts 339°
2026-05-07 20:31 42.33527 -122.85218 1885 ft 133 kts 337°
2026-05-07 20:31 42.34391 -122.85709 1694 ft 139 kts 338°
2026-05-07 20:31 42.35298 -122.86187 1547 ft 142 kts 340°
2026-05-07 20:32 42.36230 -122.86662 1408 ft 144 kts 339°
2026-05-07 20:32 42.37139 -122.87157 1330 ft 129 kts 339°
2026-05-07 20:32 42.37811 -122.87499 1318 ft 58 kts 339°
2026-05-07 20:32 42.38041 -122.87615 1314 ft 21 kts 340°
2026-05-07 20:33 42.38056 -122.87716 1315 ft 5 kts 252°
2026-05-07 20:33 42.38034 -122.87753 1315 ft 5 kts 207°
2026-05-07 20:33 42.37997 -122.87751 1317 ft 6 kts 164°
2026-05-07 20:33 42.37960 -122.87735 1318 ft 6 kts 159°
2026-05-07 20:34 42.37916 -122.87713 1319 ft 8 kts 160°
2026-05-07 20:34 42.37857 -122.87682 1318 ft 11 kts 157°
2026-05-07 20:34 42.37775 -122.87636 1318 ft 15 kts 158°
2026-05-07 20:34 42.37673 -122.87582 1320 ft 16 kts 159°
2026-05-07 20:35 42.37558 -122.87522 1319 ft 20 kts 159°
2026-05-07 20:35 42.37424 -122.87453 1322 ft 21 kts 159°
2026-05-07 20:35 42.37287 -122.87377 1323 ft 23 kts 158°
2026-05-07 20:35 42.37152 -122.87308 1327 ft 21 kts 159°
2026-05-07 20:36 42.37006 -122.87231 1325 ft 24 kts 159°
2026-05-07 20:36 42.36946 -122.87214 1325 ft 3 kts 264°
2026-05-07 20:36 42.36959 -122.87258 1329 ft 7 kts 285°
2026-05-07 20:36 42.36947 -122.87315 1325 ft 6 kts 247°
2026-05-07 20:37 42.36935 -122.87355 1327 ft 2 kts 248°